Time,TemperatureF,DewpointF,PressureIn,WindDirection,WindDirectionDegrees,WindSpeedMPH,WindSpeedGustMPH,Humidity,HourlyPrecipIn,Conditions,Clouds,dailyrainin,SoftwareType,DateUTC
2013-03-12 00:05:00,49.8,48.0,30.14,WSW,252,0.0,-999.0,92,-99.99,,,0.00,weatherlink.com 1.10,2013-03-12 07:05:00,
2013-03-12 00:20:00,49.5,47.0,30.12,WSW,252,0.0,-999.0,91,-99.99,,,0.00,weatherlink.com 1.10,2013-03-12 07:20:00,
2013-03-12 00:35:00,48.9,47.0,30.12,WSW,252,0.0,-999.0,92,-99.99,,,0.00,weatherlink.com 1.10,2013-03-12 07:35:00,
2013-03-12 00:50:00,48.6,46.0,30.12,WSW,252,0.0,-999.0,92,-99.99,,,0.00,weatherlink.com 1.10,2013-03-12 07:50:00,
2013-03-12 01:05:00,47.9,46.0,30.12,WSW,252,0.0,-999.0,94,-99.99,,,0.00,weatherlink.com 1.10,2013-03-12 08:05:00,
2013-03-12 01:20:00,48.2,47.0,30.11,WSW,252,0.0,-999.0,94,-99.99,,,0.00,weatherlink.com 1.10,2013-03-12 08:20:00,
2013-03-12 01:35:00,48.2,47.0,30.11,WSW,252,0.0,-999.0,94,-99.99,,,0.00,weatherlink.com 1.10,2013-03-12 08:35:00,
2013-03-12 01:50:00,47.4,46.0,30.11,WSW,252,0.0,-999.0,94,-99.99,,,0.00,weatherlink.com 1.10,2013-03-12 08:50:00,
2013-03-12 02:05:00,47.1,46.0,30.11,WSW,252,0.0,-999.0,96,-99.99,,,0.00,weatherlink.com 1.10,2013-03-12 09:05:00,
2013-03-12 02:20:00,47.0,46.0,30.11,WSW,252,0.0,-999.0,97,-99.99,,,0.00,weatherlink.com 1.10,2013-03-12 09:20:00,
2013-03-12 02:35:00,47.0,46.0,30.10,WSW,252,0.0,-999.0,97,-99.99,,,0.00,weatherlink.com 1.10,2013-03-12 09:35:00,
2013-03-12 02:50:00,47.0,46.0,30.09,WSW,252,0.0,-999.0,97,-99.99,,,0.00,weatherlink.com 1.10,2013-03-12 09:50:00,
2013-03-12 03:05:00,47.0,46.0,30.10,WSW,252,0.0,-999.0,97,-99.99,,,0.00,weatherlink.com 1.10,2013-03-12 10:05:00,
2013-03-12 03:20:00,47.1,47.0,30.09,WSW,252,0.0,-999.0,98,-99.99,,,0.00,weatherlink.com 1.10,2013-03-12 10:20:00,
2013-03-12 03:35:00,47.4,47.0,30.10,WSW,252,0.0,-999.0,97,-99.99,,,0.00,weatherlink.com 1.10,2013-03-12 10:35:00,
2013-03-12 03:50:00,47.9,47.0,30.09,WSW,252,0.0,-999.0,97,-99.99,,,0.00,weatherlink.com 1.10,2013-03-12 10:50:00,
2013-03-12 04:05:00,46.7,45.0,30.09,WSW,252,0.0,-999.0,95,-99.99,,,0.00,weatherlink.com 1.10,2013-03-12 11:05:00,
2013-03-12 04:20:00,45.4,44.0,30.08,WSW,252,0.0,-999.0,96,-99.99,,,0.00,weatherlink.com 1.10,2013-03-12 11:20:00,
2013-03-12 04:35:00,44.9,44.0,30.07,WSW,252,0.0,-999.0,97,-99.99,,,0.00,weatherlink.com 1.10,2013-03-12 11:35:00,
2013-03-12 04:50:00,44.8,44.0,30.08,WSW,252,0.0,-999.0,98,-99.99,,,0.00,weatherlink.com 1.10,2013-03-12 11:50:00,
2013-03-12 05:05:00,44.5,44.0,30.09,WSW,252,0.0,-999.0,98,-99.99,,,0.00,weatherlink.com 1.10,2013-03-12 12:05:00,
2013-03-12 05:20:00,45.2,45.0,30.08,WSW,252,0.0,-999.0,99,-99.99,,,0.00,weatherlink.com 1.10,2013-03-12 12:20:00,
2013-03-12 05:35:00,45.4,45.0,30.08,WSW,252,0.0,-999.0,99,-99.99,,,0.00,weatherlink.com 1.10,2013-03-12 12:35:00,
2013-03-12 05:50:00,45.5,45.0,30.09,WSW,252,0.0,-999.0,99,-99.99,,,0.00,weatherlink.com 1.10,2013-03-12 12:50:00,
2013-03-12 06:05:00,45.1,45.0,30.09,WSW,252,0.0,-999.0,99,-99.99,,,0.00,weatherlink.com 1.10,2013-03-12 13:05:00,
2013-03-12 06:20:00,44.8,45.0,30.09,WSW,252,0.0,-999.0,99,-99.99,,,0.00,weatherlink.com 1.10,2013-03-12 13:20:00,
2013-03-12 06:35:00,44.2,44.0,30.09,WSW,252,0.0,-999.0,99,-99.99,,,0.00,weatherlink.com 1.10,2013-03-12 13:35:00,
2013-03-12 06:50:00,43.8,44.0,30.09,WSW,252,0.0,-999.0,99,-99.99,,,0.00,weatherlink.com 1.10,2013-03-12 13:50:00,
2013-03-12 07:05:00,43.9,44.0,30.09,WSW,252,0.0,-999.0,99,-99.99,,,0.00,weatherlink.com 1.10,2013-03-12 14:05:00,
2013-03-12 07:20:00,43.9,44.0,30.08,WSW,252,0.0,-999.0,99,-99.99,,,0.00,weatherlink.com 1.10,2013-03-12 14:20:00,
2013-03-12 07:35:00,44.3,44.0,30.09,WSW,252,0.0,-999.0,99,-99.99,,,0.00,weatherlink.com 1.10,2013-03-12 14:35:00,
2013-03-12 08:05:00,45.4,45.0,30.09,WSW,252,0.0,-999.0,100,-99.99,,,0.00,weatherlink.com 1.10,2013-03-12 15:05:00,
2013-03-12 08:50:00,46.2,46.0,30.10,WSW,252,0.0,-999.0,100,-99.99,,,0.00,weatherlink.com 1.10,2013-03-12 15:50:00,
2013-03-12 09:06:00,46.7,47.0,30.10,WSW,252,0.0,-999.0,100,-99.99,,,0.00,weatherlink.com 1.10,2013-03-12 16:06:00,
2013-03-12 09:35:00,47.6,48.0,30.11,WSW,252,0.0,-999.0,100,-99.99,,,0.00,weatherlink.com 1.10,2013-03-12 16:35:00,
2013-03-12 09:51:00,47.9,48.0,30.11,WSW,252,0.0,-999.0,100,-99.99,,,0.00,weatherlink.com 1.10,2013-03-12 16:51:00,
2013-03-12 10:06:00,48.3,48.0,30.11,WSW,252,0.0,-999.0,100,-99.99,,,0.00,weatherlink.com 1.10,2013-03-12 17:06:00,
2013-03-12 10:20:00,49.1,49.0,30.11,WSW,252,0.0,-999.0,100,-99.99,,,0.00,weatherlink.com 1.10,2013-03-12 17:20:00,
2013-03-12 10:50:00,50.8,50.0,30.11,SW,221,0.0,-999.0,97,-99.99,,,0.00,weatherlink.com 1.10,2013-03-12 17:50:00,
2013-03-12 11:05:00,51.7,50.0,30.11,SW,221,0.0,-999.0,94,-99.99,,,0.00,weatherlink.com 1.10,2013-03-12 18:05:00,
2013-03-12 11:20:00,52.2,50.0,30.11,SE,124,0.0,-999.0,92,-99.99,,,0.00,weatherlink.com 1.10,2013-03-12 18:20:00,
2013-03-12 11:36:00,53.5,50.0,30.11,West,268,0.0,-999.0,88,-99.99,,,0.00,weatherlink.com 1.10,2013-03-12 18:36:00,
2013-03-12 11:51:00,54.2,50.0,30.12,WSW,237,0.0,-999.0,85,-99.99,,,0.00,weatherlink.com 1.10,2013-03-12 18:51:00,
2013-03-12 12:05:00,53.9,49.0,30.12,WNW,298,0.0,-999.0,83,-99.99,,,0.00,weatherlink.com 1.10,2013-03-12 19:05:00,
2013-03-12 12:21:00,53.6,49.0,30.11,West,275,0.0,-999.0,83,-99.99,,,0.00,weatherlink.com 1.10,2013-03-12 19:21:00,
2013-03-12 12:36:00,53.5,49.0,30.11,West,269,0.0,-999.0,84,-99.99,,,0.00,weatherlink.com 1.10,2013-03-12 19:36:00,
2013-03-12 12:50:00,54.1,49.0,30.11,WNW,284,0.0,-999.0,84,-99.99,,,0.00,weatherlink.com 1.10,2013-03-12 19:50:00,
2013-03-12 13:05:00,54.2,49.0,30.11,WNW,296,0.0,-999.0,82,-99.99,,,0.00,weatherlink.com 1.10,2013-03-12 20:05:00,
2013-03-12 13:20:00,54.5,49.0,30.11,WNW,296,0.0,-999.0,82,-99.99,,,0.00,weatherlink.com 1.10,2013-03-12 20:20:00,
2013-03-12 13:36:00,55.1,50.0,30.10,WNW,296,0.0,-999.0,82,-99.99,,,0.00,weatherlink.com 1.10,2013-03-12 20:36:00,
2013-03-12 13:52:00,55.9,50.0,30.09,NNE,15,0.0,-999.0,80,-99.99,,,0.00,weatherlink.com 1.10,2013-03-12 20:52:00,
2013-03-12 14:05:00,55.7,50.0,30.10,NNE,30,0.0,-999.0,81,-99.99,,,0.00,weatherlink.com 1.10,2013-03-12 21:05:00,
2013-03-12 14:20:00,55.9,50.0,30.09,North,9,0.0,-999.0,80,-99.99,,,0.00,weatherlink.com 1.10,2013-03-12 21:20:00,
2013-03-12 14:36:00,56.3,50.0,30.09,NW,309,0.0,-999.0,80,-99.99,,,0.00,weatherlink.com 1.10,2013-03-12 21:36:00,
2013-03-12 14:51:00,56.2,50.0,30.07,WNW,292,0.0,-999.0,80,-99.99,,,0.00,weatherlink.com 1.10,2013-03-12 21:51:00,
2013-03-12 15:05:00,56.6,51.0,30.08,WNW,292,0.0,-999.0,80,-99.99,,,0.00,weatherlink.com 1.10,2013-03-12 22:05:00,
2013-03-12 15:21:00,57.2,50.0,30.08,SSE,159,0.0,-999.0,78,-99.99,,,0.00,weatherlink.com 1.10,2013-03-12 22:21:00,
2013-03-12 15:35:00,57.5,50.0,30.09,NW,309,0.0,-999.0,77,-99.99,,,0.00,weatherlink.com 1.10,2013-03-12 22:35:00,
2013-03-12 15:50:00,58.3,50.0,30.07,NW,307,0.0,-999.0,73,-99.99,,,0.00,weatherlink.com 1.10,2013-03-12 22:50:00,
2013-03-12 16:06:00,57.6,49.0,30.07,NNW,346,0.0,-999.0,73,-99.99,,,0.00,weatherlink.com 1.10,2013-03-12 23:06:00,
2013-03-12 16:21:00,58.4,49.0,30.07,WSW,254,0.0,-999.0,72,-99.99,,,0.00,weatherlink.com 1.10,2013-03-12 23:21:00,
2013-03-12 16:35:00,58.6,49.0,30.06,NW,319,0.0,-999.0,71,-99.99,,,0.00,weatherlink.com 1.10,2013-03-12 23:35:00,
2013-03-12 17:06:00,59.9,50.0,30.06,ENE,65,0.0,-999.0,69,-99.99,,,0.00,weatherlink.com 1.10,2013-03-13 00:06:00,
2013-03-12 17:21:00,59.3,49.0,30.06,North,360,0.0,-999.0,69,-99.99,,,0.00,weatherlink.com 1.10,2013-03-13 00:21:00,
2013-03-12 17:35:00,58.7,49.0,30.06,North,360,1.0,-999.0,71,-99.99,,,0.00,weatherlink.com 1.10,2013-03-13 00:35:00,
2013-03-12 17:51:00,58.1,50.0,30.06,North,360,0.0,-999.0,74,-99.99,,,0.00,weatherlink.com 1.10,2013-03-13 00:51:00,
2013-03-12 18:06:00,57.6,50.0,30.06,North,360,0.0,-999.0,75,-99.99,,,0.00,weatherlink.com 1.10,2013-03-13 01:06:00,
2013-03-12 18:21:00,56.7,50.0,30.06,North,360,0.0,-999.0,77,-99.99,,,0.00,weatherlink.com 1.10,2013-03-13 01:21:00,
2013-03-12 18:35:00,56.5,50.0,30.06,North,360,0.0,-999.0,79,-99.99,,,0.00,weatherlink.com 1.10,2013-03-13 01:35:00,
2013-03-12 18:50:00,55.9,48.0,30.06,West,259,0.0,-999.0,76,-99.99,,,0.00,weatherlink.com 1.10,2013-03-13 01:50:00,
2013-03-12 19:06:00,55.3,47.0,30.07,WNW,293,0.0,-999.0,74,-99.99,,,0.00,weatherlink.com 1.10,2013-03-13 02:06:00,
2013-03-12 19:21:00,54.5,47.0,30.07,WNW,286,1.0,-999.0,75,-99.99,,,0.00,weatherlink.com 1.10,2013-03-13 02:21:00,
2013-03-12 19:51:00,52.8,45.0,30.07,WSW,258,0.0,-999.0,76,-99.99,,,0.00,weatherlink.com 1.10,2013-03-13 02:51:00,
2013-03-12 20:06:00,52.2,45.0,30.07,WSW,242,0.0,-999.0,76,-99.99,,,0.00,weatherlink.com 1.10,2013-03-13 03:06:00,
2013-03-12 20:21:00,51.9,45.0,30.08,WNW,296,2.0,-999.0,76,-99.99,,,0.00,weatherlink.com 1.10,2013-03-13 03:21:00,
2013-03-12 20:36:00,51.9,44.0,30.09,SW,231,0.0,-999.0,75,-99.99,,,0.00,weatherlink.com 1.10,2013-03-13 03:36:00,
2013-03-12 20:50:00,51.6,44.0,30.09,WSW,253,0.0,-999.0,75,-99.99,,,0.00,weatherlink.com 1.10,2013-03-13 03:50:00,
2013-03-12 21:05:00,51.6,44.0,30.09,WSW,240,0.0,-999.0,75,-99.99,,,0.00,weatherlink.com 1.10,2013-03-13 04:05:00,
2013-03-12 21:20:00,51.6,44.0,30.09,West,277,4.0,-999.0,74,-99.99,,,0.00,weatherlink.com 1.10,2013-03-13 04:20:00,
2013-03-12 21:36:00,51.4,43.0,30.09,WNW,297,1.0,-999.0,73,-99.99,,,0.00,weatherlink.com 1.10,2013-03-13 04:36:00,
2013-03-12 21:50:00,51.1,43.0,30.09,WNW,298,0.0,-999.0,73,-99.99,,,0.00,weatherlink.com 1.10,2013-03-13 04:50:00,
2013-03-12 22:05:00,50.8,43.0,30.09,WNW,298,0.0,-999.0,74,-99.99,,,0.00,weatherlink.com 1.10,2013-03-13 05:05:00,
2013-03-12 22:35:00,50.5,43.0,30.09,WNW,298,0.0,-999.0,75,-99.99,,,0.00,weatherlink.com 1.10,2013-03-13 05:35:00,
2013-03-12 22:50:00,51.0,44.0,30.10,ENE,66,0.0,-999.0,76,-99.99,,,0.00,weatherlink.com 1.10,2013-03-13 05:50:00,
2013-03-12 23:05:00,50.7,44.0,30.10,ENE,66,0.0,-999.0,77,-99.99,,,0.00,weatherlink.com 1.10,2013-03-13 06:05:00,
2013-03-12 23:21:00,50.2,43.0,30.10,ENE,66,0.0,-999.0,77,-99.99,,,0.00,weatherlink.com 1.10,2013-03-13 06:21:00,
2013-03-12 23:35:00,49.8,44.0,30.11,ENE,66,0.0,-999.0,79,-99.99,,,0.00,weatherlink.com 1.10,2013-03-13 06:35:00,
2013-03-12 23:50:00,49.4,43.0,30.10,ENE,66,0.0,-999.0,79,-99.99,,,0.00,weatherlink.com 1.10,2013-03-13 06:50:00,